STARLINK-1555, 46032

Orbit data source: Space-Track

STARLINK-1555, 46032 is a payload satellite owned by SpaceX/Seattle (US) in LEO that was launched on Fri, 07 Aug 2020 UTC via an FALCON 9 launch vehicle from the Air Force Eastern Test Range (AFETR). Payload-class satellites include a variety of spacecraft equipped with specific instruments for various scientific and technological missions. These include communications satellites like Starlink; space stations such as the ISS; scientific satellites like the Hubble; Earth observation satellites from companies like Planet Labs, Umbra, and HawkEye 360; GPS; miniature CubeSats for education and research; and military/defense satellites.

Loading next visibility...
Identifier
46032, 2020-055F
Orbit
LEO
Country
Flag of USUS
Related business
Manufacturer
SpaceX/Seattle
Mission
Operational Commercial Communications
Bus & Motor
STARLINK, Unknown motor
Mass
260 kg wet, ~248 kg dry
Launch date (UTC)
2020-08-07 (5 years ago)
Launch vehicle
FALCON 9
Launch site
Air Force Eastern Test Range (AFETR)
Object type
Payload
Rocket body
Debris
Shape & HBR
Box + 1 Pan, 10.1 m
Radar Cross Section
13.562 m², Large (>1 m²)

Expand to show TLE details & history
Last TLE update: 11 hours ago

TLE from 11 hours ago
0 STARLINK-1555
1 46032U 20055F   25291.30790174  .00003608  00000-0  26106-3 0  9992
2 46032  53.0550  45.7916 0001323  89.4347 270.6794 15.06393197287434
Epoch: 2025-10-18T07:23Z
TLE epoch observation values (Epoch: 2025-10-18T07:23:22.710Z)
Latitude
0.00002°
Longitude
-92.0938°
Altitude
548.101 km
Speed
7.589 km/s
True Right ascension
03h 03m 09s
True Declination
0° 00' 00"
Sunlit
Object was in full shadow at epoch
Visualization orbit readout
Latitude
Unknown
Longitude
Unknown
Altitude
Unknown
Speed
Unknown
Apparent Right ascension
Unknown
Apparent Declination
Unknown
Sunlit
N/A
Visualization observer readout
Local Sidereal Time
12:49:06
Azimuth
Unknown
Elevation
Unknown
Doppler factor
Unknown
Orbital elements
Apogee altitude
548.419 km
Perigee altitude
546.587 km
Semi-major axis
6,925.64 km
Eccentricity
0.00013
Inclination
53.055°
RAAN
45.7916°
Arg. of periapsis
89.4347°
True anomaly
270.66424°
Mean anomaly
270.6794°
Eccentric anomaly
270.67182°
Mean motion
3.76577 °/min
Orbital period
95.6 mins
BSTAR
0.00026106
Loading maneuver chart data...
Computing Atmospheric mass density...
Loading historical data...
Loading historical data...
Loading historical data...
Loading historical data...
Loading historical data...
Loading historical data...
Loading historical data...

Documentation

Showing up to 5 results
|